Location: Asheville, NC
(35.6000°N, 82.5500°W)
Time: 03:54:01
(UTC-04:00)

N. Korean satellite - Pass Details

Date: 15 October 2017
Orbit: 459 x 517 km, 97.2° (Epoch: 16 October)

Event Time Altitude Azimuth Distance (km) Brightness Sun altitude
Rises 20:32:30 0° 206° (SSW) 2,545 10.5 -20.7°
Reaches altitude 10° 20:35:19 10° 231° (SW) 1,656 9.9 -21.3°
Maximum altitude 20:37:21 15° 266° (W) 1,392 9.9 -21.7°
Drops below altitude 10° 20:39:23 10° 301° (WNW) 1,646 10.1 -22.1°
Sets 20:42:11 0° 326° (NNW) 2,517 10.7 -22.7°
